Change the Weather History Date:

Thursday, October 3, 2013

  Actual Average (KCSM) Record (KCSM)
Temperature  
Mean Temperature 78 °F -  
Max Temperature 87 °F 75 °F 100 °F (2000)
Min Temperature 68 °F 53 °F 42 °F (1999)
Cooling Degree Days 12    
Growing Degree Days 28 (Base 50)    
Moisture  
Dew Point 62 °F    
Average Humidity 63    
Maximum Humidity 88    
Minimum Humidity 37    
Precipitation  
Precipitation 0.00 in - - ()
Sea Level Pressure  
Sea Level Pressure 29.80 in    
Wind  
Wind Speed 16 mph (SSE)    
Max Wind Speed 26 mph    
Max Gust Speed 33 mph    
Visibility 10 miles    
Events      
Averages and records for this station are not official NWS values.
T = Trace of Precipitation, MM = Missing Value Source: NWS Daily Summary

Daily Weather History Graph

Daily Weather History Graph

Search for Another Location

Airport or City:

Trip Planner

Search our weather history database for the weather conditions in past years. The results will help you decide how hot, cold, wet, or windy it might be!

Date:

Astronomy

Oct. 03, 2013 Rise Set
Actual Time 7:32 AM CDT 7:16 PM CDT
Civil Twilight 7:07 AM CDT 7:41 PM CDT
Nautical Twilight 6:37 AM CDT 8:11 PM CDT
Astronomical Twilight 6:07 AM CDT 8:40 PM CDT
Moon 6:09 AM CDT (10/3) 6:24 PM CDT (10/3)
Length of Visible Light 12h 34m
Length of Day
11h 43m
Waning Crescent, 2% of the Moon is Illuminated
Oct 3
Waning Crescent
Oct 4
New
Oct 11
First Quarter
Oct 18
Full
Oct 26
Last Quarter

Hourly Weather History & Observations

Time (CDT) Temp. Heat Index Dew Point Humidity Pressure Visibility Wind Dir Wind Speed Gust Speed Precip Events Conditions
12:15 AM 71.6 °F - 60.8 °F 69% 29.86 in 10.0 mi SSE 12.7 mph - N/A   Clear
12:35 AM 71.6 °F - 60.8 °F 69% 29.86 in 10.0 mi SSE 11.5 mph - N/A   Clear
12:55 AM 69.8 °F - 62.6 °F 78% 29.86 in 10.0 mi SSE 9.2 mph - N/A   Clear
1:15 AM 69.8 °F - 62.6 °F 78% 29.86 in 10.0 mi SSE 9.2 mph - N/A   Clear
1:35 AM 69.8 °F - 62.6 °F 78% 29.86 in 10.0 mi SSE 9.2 mph - N/A   Clear
1:55 AM 69.8 °F - 62.6 °F 78% 29.85 in 10.0 mi SSE 11.5 mph - N/A   Clear
2:15 AM 69.8 °F - 62.6 °F 78% 29.85 in 10.0 mi SSE 11.5 mph - N/A   Clear
2:35 AM 69.8 °F - 62.6 °F 78% 29.85 in 10.0 mi SSE 11.5 mph - N/A   Scattered Clouds
2:55 AM 71.6 °F - 64.4 °F 78% 29.84 in 10.0 mi SSE 16.1 mph 19.6 mph N/A   Scattered Clouds
3:15 AM 71.6 °F - 64.4 °F 78% 29.84 in 10.0 mi SSE 16.1 mph - N/A   Scattered Clouds
3:35 AM 71.6 °F - 64.4 °F 78% 29.84 in 10.0 mi South 16.1 mph - N/A   Clear
3:55 AM 69.8 °F - 64.4 °F 83% 29.83 in 10.0 mi South 17.3 mph - N/A   Clear
4:15 AM 69.8 °F - 64.4 °F 83% 29.83 in 10.0 mi SSE 16.1 mph - N/A   Clear
4:35 AM 69.8 °F - 64.4 °F 83% 29.83 in 10.0 mi SSE 16.1 mph - N/A   Clear
4:55 AM 69.8 °F - 64.4 °F 83% 29.83 in 10.0 mi SSE 15.0 mph - N/A   Clear
5:15 AM 69.8 °F - 64.4 °F 83% 29.82 in 10.0 mi SSE 15.0 mph - N/A   Clear
5:35 AM 69.8 °F - 64.4 °F 83% 29.83 in 10.0 mi SSE 13.8 mph - N/A   Clear
5:55 AM 69.8 °F - 64.4 °F 83% 29.83 in 10.0 mi SSE 16.1 mph - N/A   Clear
6:15 AM 69.8 °F - 64.4 °F 83% 29.83 in 10.0 mi SSE 13.8 mph - N/A   Scattered Clouds
6:35 AM 69.8 °F - 64.4 °F 83% 29.83 in 10.0 mi SSE 15.0 mph - N/A   Scattered Clouds
6:55 AM 69.8 °F - 64.4 °F 83% 29.84 in 10.0 mi South 16.1 mph - N/A   Scattered Clouds
7:15 AM 69.8 °F - 64.4 °F 83% 29.84 in 10.0 mi South 12.7 mph - N/A   Mostly Cloudy
7:35 AM 69.8 °F - 64.4 °F 83% 29.84 in 10.0 mi South 13.8 mph - N/A   Overcast
7:55 AM 68.0 °F - 64.4 °F 88% 29.84 in 10.0 mi South 17.3 mph - N/A   Overcast
8:15 AM 68.0 °F - 64.4 °F 88% 29.83 in 10.0 mi SSE 16.1 mph 23.0 mph N/A   Mostly Cloudy
8:35 AM 69.8 °F - 64.4 °F 83% 29.83 in 10.0 mi South 17.3 mph 21.9 mph N/A   Mostly Cloudy
8:55 AM 69.8 °F - 64.4 °F 83% 29.84 in 10.0 mi South 18.4 mph 21.9 mph N/A   Overcast
9:15 AM 69.8 °F - 66.2 °F 88% 29.84 in 10.0 mi South 23.0 mph 29.9 mph N/A   Overcast
9:35 AM 69.8 °F - 66.2 °F 88% 29.84 in 10.0 mi South 21.9 mph 27.6 mph N/A   Overcast
9:55 AM 71.6 °F - 64.4 °F 78% 29.85 in 10.0 mi South 20.7 mph 26.5 mph N/A   Overcast
10:15 AM 73.4 °F - 64.4 °F 73% 29.85 in 10.0 mi South 26.5 mph 31.1 mph N/A   Mostly Cloudy
10:35 AM 73.4 °F - 64.4 °F 73% 29.85 in 10.0 mi South 25.3 mph 29.9 mph N/A   Mostly Cloudy
10:55 AM 77.0 °F - 64.4 °F 65% 29.84 in 10.0 mi South 17.3 mph 26.5 mph N/A   Scattered Clouds
11:15 AM 77.0 °F - 64.4 °F 65% 29.85 in 10.0 mi South 24.2 mph 27.6 mph N/A   Scattered Clouds
11:35 AM 77.0 °F - 64.4 °F 65% 29.84 in 10.0 mi South 21.9 mph 28.8 mph N/A   Scattered Clouds
11:55 AM 78.8 °F - 64.4 °F 61% 29.84 in 10.0 mi South 25.3 mph 28.8 mph N/A   Scattered Clouds
12:15 PM 78.8 °F - 62.6 °F 57% 29.84 in 10.0 mi South 17.3 mph 28.8 mph N/A   Scattered Clouds
12:35 PM 80.6 °F 81.8 °F 62.6 °F 54% 29.84 in 10.0 mi South 21.9 mph 27.6 mph N/A   Scattered Clouds
12:55 PM 80.6 °F 81.8 °F 62.6 °F 54% 29.83 in 10.0 mi South 20.7 mph 26.5 mph N/A   Scattered Clouds
1:15 PM 82.4 °F 83.4 °F 62.6 °F 51% 29.82 in 10.0 mi South 19.6 mph 26.5 mph N/A   Clear
1:35 PM 82.4 °F 83.4 °F 62.6 °F 51% 29.81 in 10.0 mi South 19.6 mph 28.8 mph N/A   Clear
1:55 PM 84.2 °F 85.0 °F 62.6 °F 48% 29.80 in 10.0 mi South 24.2 mph 28.8 mph N/A   Scattered Clouds
2:15 PM 84.2 °F 85.0 °F 62.6 °F 48% 29.79 in 10.0 mi South 20.7 mph 32.2 mph N/A   Clear
2:35 PM 84.2 °F 85.0 °F 62.6 °F 48% 29.79 in 10.0 mi South 21.9 mph 29.9 mph N/A   Clear
2:55 PM 86.0 °F 86.6 °F 62.6 °F 45% 29.78 in 10.0 mi South 23.0 mph 31.1 mph N/A   Clear
3:15 PM 86.0 °F 86.6 °F 62.6 °F 45% 29.77 in 10.0 mi South 25.3 mph 31.1 mph N/A   Clear
3:35 PM 86.0 °F 86.1 °F 60.8 °F 43% 29.75 in 10.0 mi South 21.9 mph 28.8 mph N/A   Clear
3:55 PM 86.0 °F 86.1 °F 60.8 °F 43% 29.74 in 10.0 mi South 21.9 mph 32.2 mph N/A   Clear
4:15 PM 86.0 °F 86.1 °F 60.8 °F 43% 29.74 in 10.0 mi South 21.9 mph 29.9 mph N/A   Clear
4:35 PM 86.0 °F 86.1 °F 60.8 °F 43% 29.74 in 10.0 mi South 20.7 mph 28.8 mph N/A   Clear
4:55 PM 87.8 °F 87.6 °F 60.8 °F 40% 29.73 in 10.0 mi South 20.7 mph 32.2 mph N/A   Clear
5:15 PM 87.8 °F 87.1 °F 59.0 °F 38% 29.73 in 10.0 mi South 25.3 mph 31.1 mph N/A   Clear
5:35 PM 87.8 °F 87.1 °F 59.0 °F 38% 29.72 in 10.0 mi South 24.2 mph 28.8 mph N/A   Clear
5:55 PM 86.0 °F 85.4 °F 59.0 °F 40% 29.72 in 10.0 mi SSE 24.2 mph 33.4 mph N/A   Clear
6:15 PM 86.0 °F 85.4 °F 59.0 °F 40% 29.72 in 10.0 mi South 25.3 mph 33.4 mph N/A   Clear
6:35 PM 86.0 °F 85.4 °F 59.0 °F 40% 29.71 in 10.0 mi South 24.2 mph 32.2 mph N/A   Clear
6:55 PM 86.0 °F 84.9 °F 57.2 °F 37% 29.71 in 10.0 mi South 21.9 mph 33.4 mph N/A   Clear
7:15 PM 84.2 °F 83.8 °F 59.0 °F 42% 29.72 in 10.0 mi South 17.3 mph - N/A   Clear
7:35 PM 82.4 °F 82.5 °F 59.0 °F 45% 29.71 in 10.0 mi South 17.3 mph - N/A   Clear
7:55 PM 82.4 °F 82.5 °F 59.0 °F 45% 29.72 in 10.0 mi South 16.1 mph 24.2 mph N/A   Clear
8:15 PM 80.6 °F 81.1 °F 59.0 °F 48% 29.72 in 10.0 mi SSE 16.1 mph - N/A   Clear
8:35 PM 80.6 °F 81.1 °F 59.0 °F 48% 29.72 in 10.0 mi SSE 17.3 mph 21.9 mph N/A   Scattered Clouds
8:55 PM 80.6 °F 80.8 °F 57.2 °F 45% 29.73 in 10.0 mi SSE 15.0 mph - N/A   Clear
9:15 PM 78.8 °F - 59.0 °F 51% 29.74 in 10.0 mi SSE 13.8 mph - N/A   Clear
9:35 PM 78.8 °F - 59.0 °F 51% 29.74 in 10.0 mi SSE 15.0 mph - N/A   Scattered Clouds
9:55 PM 77.0 °F - 59.0 °F 54% 29.75 in 10.0 mi SSE 11.5 mph - N/A   Scattered Clouds
10:15 PM 77.0 °F - 59.0 °F 54% 29.75 in 10.0 mi SSE 17.3 mph - N/A   Clear
10:35 PM 77.0 °F - 60.8 °F 57% 29.75 in 10.0 mi SSE 17.3 mph 21.9 mph N/A   Clear
10:55 PM 77.0 °F - 60.8 °F 57% 29.75 in 10.0 mi SSE 21.9 mph - N/A   Clear
11:55 PM 78.8 °F - 60.8 °F 54% 29.77 in 10.0 mi SSE 19.6 mph 25.3 mph N/A   Scattered Clouds